Location: Burgberg
(50.1428°N, 11.0671°E)
Time: 11:16:47
(UTC+00:00)

STARLINK-73 - Pass Details

Date: 26 January 2020
Orbit: 528 x 531 km, 53.0° (Epoch: 19 February)

Event Time Altitude Azimuth Distance (km) Brightness Sun altitude
Exits shadow 05:40:20 20° 278° (W) 1,283 4.8 -12.4°
Maximum altitude 05:43:01 58° 353° (N) 621 3.7 -12.0°
Drops below altitude 10° 05:47:00 10° 74° (ENE) 1,779 7.2 -11.4°
Sets 05:49:15 0° 78° (ENE) 2,669 8.3 -11.1°
